User: anonymous   Login
Location: Erp
(42.9417°N, 1.2009°E)
Time: 11:42:56
(UTC+00:00)
Language:

SJ 16-02 - Orbit

View from above orbital plane
View from above orbital plane
View from above satellite
View from above satellite

Ground track
Ground track

The orbit is defined by the following mean orbital elements,

1 41634U          26064.17265987 +.00000000 +00000-0 +16633-3 0 00006
2 41634  75.0009 115.8273 0008613 285.1569  74.8667 14.93219445    02
Epoch (UTC): 05 March 2026 04:08:37
Eccentricity: 0.0008613
inclination: 75.0009°
perigee height: 582 km
apogee height: 594 km
right ascension of ascending node: 115.8273°
argument of perigee: 285.1569°
revolutions per day: 14.93219445
mean anomaly at epoch: 74.8667°

The dashed part of the orbit path shows where the satellite is in the earth's shadow,  

DLR